パンスターズ彗星

C/2014 R3 ( PanSTARRS )

English version
Home page
Updated on November 13, 2016

---------------------------------------------------------------------

・ プロフィール

発見日 2014年9月6日
発見光度 20.1等
発見者 Pan-STARRS 1 telescope (Haleakala)

・ 写真集

・ 軌道要素

Epoch 2016 July 31.0 TT = JDT 2457600.5
T 2016 Aug. 7.88017 TT                                  MPCW
q   7.2754034            (2000.0)            P               Q
z  +0.0000174      Peri.  113.39997     -0.36315027     -0.82312370
 +/-0.0000008      Node   334.11209     -0.21700414     +0.53038809
e   0.9998737      Incl.   90.83746     +0.90610766     -0.20286904
From 291 observations 2014 Sept. 6-2016 Oct. 3, mean residual 0".3.

・ 光度変化

        m1 = -22 + 5 logΔ + 40 log r

---------------------------------------------------------------------

軌道要素はM.P.E.C. 2016-U66に掲載されたものです。
光度グラフはComet for Windowsで作成したものです。

---------------------------------------------------------------------

Copyright(C) Seiichi Yoshida (comet@aerith.net). All rights reserved.